Location: Nitra
(0.0000°N, 18.0833°E)
Time: 02:02:56
(UTC+02:00)

LilacSat-2 - Visible Passes

Search period start: 20 July 2024 00:00
Search period end: 30 July 2024 00:00
Orbit: 477 x 492 km, 97.5° (Epoch: 19 July)

Date Brightness Start Highest point End Pass type
(mag) Time Alt. Az. Time Alt. Az. Time Alt. Az.
21 Jul ? 06:13:50 10° ENE 06:16:07 16° ESE 06:18:24 10° SE visible
21 Jul ? 19:34:29 10° SSW 19:37:07 19° WSW 19:39:45 10° NW visible
25 Jul ? 06:09:54 10° ENE 06:11:44 14° ESE 06:13:35 10° SE visible
25 Jul ? 19:29:48 10° SSW 19:32:42 23° WSW 19:35:36 10° NW visible
28 Jul ? 19:51:17 10° WSW 19:52:26 11° WSW 19:53:34 10° W visible
29 Jul ? 06:05:52 10° E 06:07:00 11° ESE 06:08:08 10° ESE visible
29 Jul ? 19:24:49 10° SSW 19:27:55 27° WSW 19:31:03 10° NW visible
